Zurück zum Katalog

STARLINK-37492

AktivKommunikationSSO
NORAD 68849·PAYLOAD·🇺🇸 United States

Gestartet Apr 26, 2026 von Vandenberg Space Force Base

Loading…

Nächste Überflüge (nächste 24 Stunden)

TLE

AktuellSource: CelesTrak SupGP

Epoche: Sep 14, 2026, 23:19 UTC

1 68849C 26094L   26257.97201389  .00066652  00000+0  20682-2 0  2578
2 68849  97.2835 271.1643 0001243  94.3124 127.8609 15.33418118    17

Verfolge STARLINK-37492 in Echtzeit mit AllMySat

Download on the App Store